Home > Weather > Lincoln > Past weeks

Flag for U.S.A. Weather for the Past 2 Weeks in Lincoln, Nebraska, U.S.A.

Now
34 °F

Sunny.


Feels Like: 28 °F
Forecast: 17 / 35 °F
Wind: 7 mph from Southwest

Location: Lincoln Municipal Airport

Current Time: Feb 5, 2016 at 5:14:25 PM

Latest Report: Feb 5, 2016 at 3:54 PM


Visibility: 9 mi

Pressure: 30.29 "Hg

Humidity: 82%

Dew point: 29 °F

Location of LincolnLocation

Historic Weather in Lincoln — Graph

°F

Lincoln Temperature Yesterday

Maximum temperature yesterday: 30 °F (at 3:54 PM)
Minimum temperature yesterday: 9 °F (at 5:54 AM)
Average temperature yesterday: 18 °F

High & Low Weather Summary for the Past Weeks

 TemperatureHumidityPressure
High52 °F (Jan 30, 1:54 PM)100% (Feb 2, 7:54 AM)30.48 "Hg (Feb 2, 7:54 AM)
Low9 °F (Feb 4, 5:54 AM)39% (Jan 31, 3:54 PM)29.39 "Hg (Feb 2, 1:54 PM)
Average30 °F80%30.02 "Hg
* Reported Jan 21 3:54 PM — Feb 5 3:54 PM, Lincoln, Weather by CustomWeather, © 2016

Note: Actual official high and low records may vary slightly from our data, if they occured in-between our weather recording intervals... More about our weather records

Advertising

Lincoln Weather History for the Previous 24 Hours

 ConditionsComfort  
Time TempWeatherWind HumidityBarometerVisibility
3:54 PM
Fri, Feb 5
34 °FSunny.7 mph82%30.29 "Hg9 mi
2:54 PM32 °FLow clouds.7 mph88%30.30 "Hg7 mi
2:04 PM31 °FLight snow. Ice fog.8 mph92%30.25 "Hg2 mi
1:54 PM31 °FLight snow. Ice fog.8 mph89%30.31 "Hg2 mi
12:54 PM30 °FLight snow. Ice fog.10 mph85%30.33 "Hg3 mi
11:54 AM28 °FLight snow. Ice fog.10 mph89%30.37 "Hg1 mi
10:54 AM27 °FLight snow. Ice fog.12 mph89%30.39 "Hg1 mi
10:04 AM26 °FLight snow. Ice fog.13 mph88%30.34 "Hg1 mi
9:54 AM26 °FLight snow. Ice fog.13 mph88%30.40 "Hg1 mi
8:54 AM23 °FLight snow. Ice fog.9 mph85%30.41 "Hg1 mi
7:54 AM20 °FMostly cloudy.5 mph85%30.42 "Hg7 mi
6:54 AM17 °FMostly cloudy.5 mph88%30.42 "Hg8 mi
5:54 AM15 °FPassing clouds.5 mph91%30.41 "Hg8 mi
4:54 AM14 °FClear.No wind80%30.40 "Hg9 mi
3:54 AM14 °FClear.No wind87%30.40 "Hg8 mi
2:54 AM12 °FClear.No wind88%30.40 "Hg9 mi
1:54 AM11 °FClear.No wind88%30.41 "Hg9 mi
12:54 AM13 °FClear.No wind88%30.42 "Hg8 mi
11:54 PM
Thu, Feb 4
13 °FClear.No wind88%30.42 "Hg8 mi
10:54 PM14 °FClear.No wind87%30.42 "Hg9 mi
9:54 PM15 °FClear.No wind83%30.41 "Hg9 mi
8:54 PM16 °FClear.3 mph84%30.41 "Hg10 mi
7:54 PM19 °FClear.No wind85%30.40 "Hg10 mi
6:54 PM24 °FClear.3 mph77%30.39 "Hg10 mi
5:54 PM26 °FClear.No wind71%30.36 "Hg10 mi
Weather by CustomWeather, © 2016

See weather overviewHow to use our weather pages